Location: Baix
(44.7118°N, 4.7648°E)
Time: 02:27:18
(UTC+00:00)

Cosmos 1726 - Pass Details

Date: 07 August 2020
Orbit: 482 x 499 km, 82.5° (Epoch: 19 September)

Event Time Altitude Azimuth Distance (km) Brightness Sun altitude
Exits shadow 03:38:49 13° 226° (SW) 1,518 3.9 -9.4°
Maximum altitude 03:41:38 30° 285° (WNW) 904 3.1 -9.0°
Drops below altitude 10° 03:44:56 10° 348° (NNW) 1,688 5.1 -8.5°
Sets 03:47:14 0° 359° (N) 2,572 6.2 -8.2°
